{"data":{"norad_id":68327,"intl_designator":"2026-059G","name":"STARLINK-37199","alt_names":[],"object_type":"PAYLOAD","status":"ACTIVE","operator":null,"country":"US","launch_date":"2026-03-22","launch_site_code":"AFETR","launch_vehicle":null,"mission":null,"orbit_class":"UNKNOWN","rcs_meters":null,"size_class":null,"mass_kg":null,"dimensions":null,"purposes":["comms"],"wikipedia_slug":null,"has_3d_model":false,"image_url":null,"decayed_at":null,"tle_current":{"epoch":"2026-09-19T23:55:13.240128Z","epoch_age_seconds":91887,"freshness":"FRESH","line1":"1 68327U 26059G   26262.99668102  .00015405  00000+0  46575-3 0  9991","line2":"2 68327  53.1601 163.7065 0001377  90.2852 269.8308 15.34426430 27957","mean_motion":15.3442643,"eccentricity":0.0001377,"inclination_deg":53.1601,"raan_deg":163.7065,"arg_perigee_deg":90.2852,"mean_anomaly_deg":269.8308,"bstar":0.00046575,"rev_number":2795,"period_min":93.846141583992,"perigee_km":461.68271292068,"apogee_km":463.56665868895,"semimajor_km":6840.7616858048,"source":"CELESTRAK","updated_at":"2026-09-20T09:00:43.884295Z"}}}